Weather History for Huron, SD

Change the Weather History Date:

Sunday, November 10, 2013

  Actual Average Record
Temperature  
Mean Temperature 36 °F 36 °F  
Max Temperature 53 °F 47 °F 74 °F (1912)
Min Temperature 19 °F 25 °F -6 °F (1986)
Degree Days  
Heating Degree Days 29 29  
Month to date heating degree days 274 266  
Since 1 July heating degree days 913 996  
Cooling Degree Days 0 0  
Month to date cooling degree days 0 0  
Year to date cooling degree days 848 742  
Moisture  
Dew Point 25 °F    
Average Humidity 66    
Maximum Humidity 91    
Minimum Humidity 41    
Precipitation  
Precipitation 0.00 in 0.04 in 1.20 in (1998)
Month to date precipitation 0.09 0.35  
Year to date precipitation 24.11 21.86  
Snow  
Snow 0.00 in 0.20 in 12.00 in (1998)
Month to date snowfall 0.6 1.6  
Since 1 July snowfall 1.5 2.7  
Since 1 September snowfall 1.5 2.7  
Snow Depth 0.00 in    
Sea Level Pressure  
Sea Level Pressure 30.26 in    
Wind  
Wind Speed 9 mph (SSW)    
Max Wind Speed 28 mph    
Max Gust Speed 33 mph    
Visibility 10 miles    
Events      
T = Trace of Precipitation, MM = Missing Value Source: NWS Daily Summary

Daily Weather History Graph

Daily Weather History Graph

Search for Another Location

Airport:

Trip Planner

Search our weather history database for the weather conditions in past years. The results will help you decide how hot, cold, wet, or windy it might be!

Date:

Astronomy

Nov. 10, 2013 Rise Set
Actual Time 7:22 AM CST 5:10 PM CST
Civil Twilight 6:51 AM CST 5:41 PM CST
Nautical Twilight 6:16 AM CST 6:16 PM CST
Astronomical Twilight 5:42 AM CST 6:50 PM CST
Moon 1:31 PM CST (11/10) No Moon Set
Length of Visible Light 10h 49m
Length of Day
9h 47m
First Quarter, 56% of the Moon is Illuminated
Nov 10
First Quarter
Nov 17
Full
Nov 25
Last Quarter
Dec 2
New
Dec 9
First Quarter

Hourly Weather History & Observations

Time (CST) Temp. Windchill Dew Point Humidity Pressure Visibility Wind Dir Wind Speed Gust Speed Precip Events Conditions
12:55 AM 19.9 °F 14.9 °F 17.1 °F 89% 30.40 in 10.0 mi West 3.5 mph - N/A   Clear
1:55 AM 19.0 °F 13.9 °F 16.0 °F 88% 30.39 in 10.0 mi West 3.5 mph - N/A   Clear
2:55 AM 21.0 °F 14.6 °F 18.0 °F 88% 30.39 in 10.0 mi SW 4.6 mph - N/A   Clear
3:55 AM 19.9 °F 14.9 °F 17.1 °F 89% 30.39 in 10.0 mi SSW 3.5 mph - N/A   Clear
4:55 AM 21.9 °F - 18.0 °F 85% 30.38 in 10.0 mi Calm Calm - N/A   Clear
5:55 AM 23.0 °F - 19.0 °F 85% 30.39 in 10.0 mi Calm Calm - N/A   Clear
6:55 AM 26.1 °F 18.4 °F 21.9 °F 84% 30.37 in 10.0 mi South 6.9 mph - N/A   Overcast
7:55 AM 25.0 °F 20.7 °F 21.9 °F 88% 30.38 in 10.0 mi SSE 3.5 mph - N/A   Overcast
8:55 AM 28.0 °F 21.7 °F 24.1 °F 85% 30.37 in 10.0 mi South 5.8 mph - N/A   Overcast
9:55 AM 30.9 °F 22.8 °F 25.0 °F 79% 30.35 in 10.0 mi SSE 9.2 mph - N/A   Overcast
10:55 AM 35.1 °F 27.4 °F 27.0 °F 72% 30.31 in 10.0 mi South 10.4 mph - N/A   Overcast
11:55 AM 39.9 °F 32.5 °F 27.0 °F 60% 30.27 in 10.0 mi South 12.7 mph 21.9 mph N/A   Clear
12:55 PM 44.1 °F 38.1 °F 27.0 °F 51% 30.20 in 10.0 mi South 11.5 mph - N/A   Clear
1:55 PM 48.0 °F - 28.9 °F 48% 30.17 in 10.0 mi South 8.1 mph 18.4 mph N/A   Clear
2:55 PM 50.0 °F - 30.0 °F 46% 30.15 in 10.0 mi SSE 6.9 mph - N/A   Clear
3:55 PM 53.1 °F - 30.0 °F 41% 30.11 in 10.0 mi SW 10.4 mph - N/A   Clear
4:55 PM 50.0 °F - 30.9 °F 48% 30.11 in 10.0 mi SSW 3.5 mph - N/A   Mostly Cloudy
5:55 PM 42.1 °F - 30.0 °F 62% 30.12 in 10.0 mi Calm Calm - N/A   Partly Cloudy
6:55 PM 39.0 °F 36.8 °F 30.9 °F 73% 30.12 in 10.0 mi SSW 3.5 mph - N/A   Mostly Cloudy
7:55 PM 45.0 °F 37.9 °F 30.9 °F 58% 30.15 in 10.0 mi North 16.1 mph - N/A   Overcast
8:55 PM 41.0 °F 34.3 °F 30.9 °F 67% 30.17 in 10.0 mi North 11.5 mph - N/A   Clear
9:55 PM 37.9 °F 29.2 °F 28.9 °F 70% 30.17 in 10.0 mi North 15.0 mph - N/A   Mostly Cloudy
10:55 PM 34.0 °F 22.1 °F 28.0 °F 79% 30.20 in 10.0 mi North 21.9 mph 28.8 mph N/A   Scattered Clouds
11:55 PM 30.0 °F 16.0 °F 24.1 °F 79% 30.25 in 10.0 mi North 25.3 mph 33.4 mph N/A   Mostly Cloudy